Content
SEND FEEDBACK

The Bahamas Flag

NASSAU, THE BAHAMAS


Home > Caribbean > The Bahamas
Elevation: 7 meters     Latitude: 25 03N     Longitude: 077 28W

WEATHER
 
SELECT A DAY
Number of Records: 177,276;   Date Range: 6/30/96 - 3/22/16
 
SHARE

PRINT THIS DATA

[ ← Previous Day ]
WEATHER ALMANAC - 16 JANUARY, 2013
[ Next Day → ]
[ °F ]   °C
Weather ElementAverageHighLow
Temperature23.8 °C27 °C (1:00 pm)22 °C (2:00 am)
Dewpoint20.1 °C21.1 °C (1:00 pm)19 °C (2:00 am)
Humidity78.2 %94 % (7:00 am)63 % (10:00 am)
Barometer984.8 hPa1021 hPa (10:00 am) (7:00 pm)
Wind Speed9.7 km/h18.5 km/h (10:00 am)
Weather ElementAverage
Visibility11.3 km
Wind DirectionENE (64.6 °)

Weather ElementTotal
Precipitation---
Cooling Degree Days6.2 (Base 18.3)
Growing Degree Days14.5 (Base 10)
Averaged from 30 records on 16 January, 2013
WEATHER CONDITIONS BREAKOUT
WIND DIRECTION BREAKOUT
WEATHER BY HOUR - 16 JANUARY, 2013
[ °F ]   °C
Local TimeTemperatureDewpointHumidityBarometerVisibilityWind DirectionWind SpeedGust SpeedPrecipitationEventsConditions
1:00 AM22.2 °C20 °C85 %1017.9 hPa14.5 kmNE (50°)11.1 km/hScattered Clouds
1:00 AM23 °C20 °C83 %1017.9 hPa10 kmNE (50°)11.1 km/hPartly Cloudy
2:00 AM22 °C19 °C83 %1017.6 hPa10 kmNE (50°)7.4 km/hScattered Clouds
3:00 AM22 °C19 °C83 %1017.6 hPa10 kmNE (50°)7.4 km/hScattered Clouds
4:00 AM22.8 °C20.6 °C82 %1017.9 hPa14.5 kmNE (50°)7.4 km/hMostly Cloudy
4:00 AM23 °C20 °C83 %1017.9 hPa10 kmNE (50°)7.4 km/hMostly Cloudy
5:00 AM23 °C20 °C83 %1017.9 hPa10 kmNE (50°)5.6 km/hScattered Clouds
6:00 AM22 °C19 °C83 %1018.6 hPa10 kmNE (50°)5.6 km/hScattered Clouds
7:00 AM22.2 °C20.6 °C88 %1019 hPa14.5 kmCalmMostly Cloudy
7:00 AM22 °C21 °C94 %1019 hPa10 kmCalmMostly Cloudy
8:00 AM23 °C20 °C83 %1019.6 hPa10 kmNE (50°)7.4 km/hMostly Cloudy
9:00 AM24 °C20 °C78 %1020.3 hPa10 kmEast (90°)11.1 km/hMostly Cloudy
10:00 AM25.6 °C20 °C63 %1021 hPa14.5 kmEast (90°)18.5 km/hPartly Cloudy
10:00 AM25 °C20 °C74 %1020.7 hPa10 kmEast (90°)18.5 km/hScattered Clouds
11:00 AM25 °C19 °C69 %1020 hPa10 kmNE (50°)11.1 km/hPartly Cloudy
12:00 PM25 °C19 °C69 %1019.3 hPa10 kmNE (50°)18.5 km/hScattered Clouds
1:00 PM26.7 °C21.1 °C64 %1018.6 hPa14.5 kmEast (90°)14.8 km/hPartly Cloudy
1:00 PM27 °C21 °C70 %1018.6 hPa10 kmEast (90°)14.8 km/hScattered Clouds
2:00 PM25 °C19 °C69 %1017.9 hPa10 kmEast (90°)18.5 km/hPartly Cloudy
3:00 PM25 °C20 °C74 %1017.3 hPa10 kmEast (90°)16.7 km/hPartly Cloudy
4:00 PM25 °C20.6 °C69 %1017.9 hPa14.5 kmEast (90°)18.5 km/hPartly Cloudy
4:00 PM25 °C20 °C74 %1017.9 hPa10 kmEast (90°)18.5 km/hScattered Clouds
5:00 PM25 °C20 °C74 %1017.9 hPa10 kmEast (90°)11.1 km/hScattered Clouds
6:00 PM24 °C20 °C78 %1018.3 hPa10 kmNE (50°)5.6 km/hMostly Cloudy
7:00 PM23.9 °C21.1 °C79 %1019 hPa14.5 kmCalmPartly Cloudy
7:00 PM24 °C21 °C83 %1019 hPaNorthScattered Clouds
8:00 PM23 °C20 °C83 %10 kmEast (90°)5.6 km/hMostly Cloudy
9:00 PM23 °C20 °C83 %1019 hPa10 kmESE (110°)5.6 km/hScattered Clouds
10:00 PM23.3 °C20.6 °C81 %1019.3 hPa14.5 kmESE (110°)3.7 km/hPartly Cloudy
11:00 PM23 °C20 °C83 %1019.3 hPa10 kmCalmScattered Clouds
Hourly data recorded from MYNN, located 0 kilometers away from Nassau, The Bahamas




STORIES FROM OUR PARTNERS